CST,Max TemperatureF,Mean TemperatureF,Min TemperatureF,Max Dew PointF,MeanDew PointF,Min DewpointF,Max Humidity, Mean Humidity, Min Humidity, Max Sea Level PressureIn, Mean Sea Level PressureIn, Min Sea Level PressureIn, Max VisibilityMiles, Mean VisibilityMiles, Min VisibilityMiles, Max Wind SpeedMPH, Mean Wind SpeedMPH, Max Gust SpeedMPH,PrecipitationIn, CloudCover, Events, WindDirDegrees
2013-2-1,37,27,17,36,16,9,93,73,47,30.40,30.30,29.98,10,9,1,16,8,33,0.00,3,Rain-Snow,300
2013-2-2,37,28,19,36,25,18,100,86,64,30.32,30.17,30.04,10,8,1,12,2,18,0.00,7,Rain-Snow,177
2013-2-3,39,36,32,36,31,27,100,84,75,30.15,30.04,29.96,10,8,0,12,2,22,0.02,8,Rain-Snow,310
2013-2-4,46,35,24,36,29,25,100,75,50,30.13,30.01,29.92,10,10,10,16,2,17,0.00,3,,186
2013-2-5,57,45,33,41,37,34,100,79,48,30.05,29.95,29.91,10,9,5,10,1,,0.00,5,,250
2013-2-6,60,44,28,37,32,27,100,75,29,30.21,30.16,30.05,10,10,7,7,1,,0.00,0,,290
2013-2-7,60,48,35,45,38,30,100,69,39,30.17,30.06,29.92,10,10,10,7,1,,0.00,4,Rain,172
2013-2-8,51,44,37,46,39,28,100,83,70,30.29,30.06,29.89,10,9,2,16,3,21,0.00,8,Rain,350
2013-2-9,55,42,28,32,29,27,93,69,33,30.36,30.29,30.22,10,10,1,7,3,,0.00,2,,353
2013-2-10,62,52,41,46,36,28,100,65,27,30.23,30.12,29.98,10,10,7,8,2,17,0.00,4,Rain,185
2013-2-11,60,51,42,55,43,28,100,71,38,30.13,30.03,29.95,10,10,7,14,4,23,0.00,3,Rain,238
2013-2-12,55,44,33,41,34,28,100,69,38,30.18,30.05,29.85,10,10,10,5,0,,0.00,2,,159
2013-2-13,46,42,37,45,39,32,100,90,76,29.98,29.80,29.68,10,8,2,12,1,20,0.05,8,Rain,332
2013-2-14,55,42,30,37,35,28,100,83,51,30.05,30.01,29.96,10,9,1,10,2,17,0.00,3,,188
2013-2-15,50,39,28,41,34,28,100,87,66,30.11,30.06,30.02,10,8,0,8,1,,0.00,5,Fog-Rain,6
2013-2-16,35,30,26,28,22,12,93,69,48,30.10,30.04,30.00,10,9,1,16,5,23,0.00,5,Snow,333
2013-2-17,42,32,23,21,16,12,86,59,31,30.24,30.19,30.11,10,10,7,15,5,24,0.00,3,,313
2013-2-18,48,34,21,25,20,19,100,76,39,30.27,30.14,29.92,10,10,7,15,4,26,0.00,0,,176
2013-2-19,,,,,,,,,,29.98,29.94,29.91,10,7,1,26,12,38,0.22,7,Rain,208
2013-2-20,,,,,,,,,,,,,,,,,,,,,,
2013-2-21,,,,,,,,,,,,,,,,,,,,,,
2013-2-22,,,,,,,,,,,,,,,,,,,,,,
2013-2-23,,,,,,,,,,,,,,,,,,,,,,
2013-2-24,,,,,,,,,,,,,,,,,,,,,,
2013-2-25,,,,,,,,,,,,,,,,,,,,,,
2013-2-26,56,48,41,49,41,35,88,77,66,29.67,29.55,29.43,10,10,5,16,6,33,0.10,7,Rain,202
2013-2-27,44,40,35,35,32,30,89,74,61,29.84,29.78,29.68,10,10,2,10,5,21,0.01,8,Rain-Snow,231
2013-2-28,36,34,32,31,28,25,92,76,64,29.99,29.90,29.80,10,9,3,12,5,20,0.01,8,Rain-Snow,281